Regional Weather Roundup
Issued by NWS

Home | Current Version | Previous Version | Text Only | Print | Product List | Glossary Off
Versions: 1 2 3 4 5 6 7 8 9 10 11 12 13 14 15 16 17 18 19 20 21 22 23 24 25 26 27 28 29 30 31 32 33 34 35 36 37 38 39 40 41 42 43 44 45 46 47 48 49 50

000
ASUS45 KBOI 012310
RWRID

IDAHO REGIONAL WEATHER ROUNDUP
NATIONAL WEATHER SERVICE BOISE ID
500 PM MDT TUE SEP 01 2015

NOTE: "FAIR" INDICATES FEW OR NO CLOUDS BELOW 12000 FEET
WITH NO SIGNIFICANT WEATHER AND/OR OBSTRUCTIONS TO VISIBILITY

IDZ012-014-020000-
SOUTHWEST IDAHO


CITY           SKY/WX    TMP DP  RH WIND       PRES   REMARKS
BOISE          PTSUNNY   84  40  21 NW8       29.79F
CALDWELL         N/A     88  45  22 NE7       29.79F
MOUNTAIN HOME  SUNNY     90  33  13 SW3       29.77F
$$

IDZ016-017-020000-
SOUTHCENTRAL IDAHO


CITY           SKY/WX    TMP DP  RH WIND       PRES   REMARKS
BURLEY         MOSUNNY   83  38  20 N7        29.86F
JEROME         SUNNY     87  40  19 NW6       29.86F
TWIN FALLS     SUNNY     90  29  11 NE7       29.87F
$$

IDZ019>023-020000-
SOUTHEAST IDAHO


CITY           SKY/WX    TMP DP  RH WIND       PRES   REMARKS
IDAHO FALLS    SUNNY     85  29  13 SW15      29.93F
POCATELLO      SUNNY     88  28  11 W12       29.91F
REXBURG        SUNNY     84  30  14 SW16G24   29.94F
$$

IDZ006-010-011-018-031-032-020000-
CENTRAL IDAHO MOUNTAINS


CITY           SKY/WX    TMP DP  RH WIND       PRES   REMARKS
MCCALL         MOSUNNY   76  35  22 S14       29.91F
HAILEY         MOSUNNY   81  34  18 S10       29.96F
STANLEY          N/A     76  25  15 VRB5      30.01F
SALMON         SUNNY     84  36  17 N5        29.75F
CHALLIS        SUNNY     86  25  11 SW12G24   29.85F
$$

IDZ002-004-006-007-026-020000-
NORTHERN IDAHO


CITY           SKY/WX    TMP DP  RH WIND       PRES   REMARKS
LEWISTON       MOSUNNY   83  41  22 VRB3      29.74F
LOWELL           N/A     82  57  42 CALM      29.70F
COEUR D`ALENE  PTSUNNY   75  39  27 SW12      29.78F
MULLAN PASS    MOSUNNY   62  30  29 VRB6      29.95F
$$



USA.gov is the U.S. government's official web portal to all federal, state and local government web resources and services.